{"data":{"norad_id":68361,"epoch":"2026-05-25T03:38:59.383680Z","epoch_age_seconds":72338,"freshness":"FRESH","line1":"1 68361U 26061B   26145.15207620  .00075444  00000+0  30375-3 0  9994","line2":"2 68361  82.2965  37.9133 0006177 187.4427 172.6752 15.86134355  9929","mean_motion":15.86134355,"eccentricity":0.0006177,"inclination_deg":82.2965,"raan_deg":37.9133,"arg_perigee_deg":187.4427,"mean_anomaly_deg":172.6752,"bstar":0.00030375,"rev_number":992,"period_min":90.786760620919,"perigee_km":308.99937542326,"apogee_km":317.2657698533,"semimajor_km":6691.2695726383,"source":"CELESTRAK","updated_at":"2026-05-25T13:38:07.763640Z"}}